FW5830 Weather Reports


time (UTC)temp
C
wind
direction
speed
KPH
gust
KPH
rain 1hr
cm
rain 24hr
cm
rain mn
cm
humidity
%
barometer
mb
20260904093057 20 85 0.0 4.8 0.00 0.00 0.00 31 1016.4
20260904091553 20 84 1.6 6.4 0.00 0.00 0.00 31 1016.3
20260904090053 20 91 0.0 9.7 0.00 0.00 0.00 32 1016.1
20260904084555 20 0 0.0 1.6 0.00 0.00 0.00 32 1016.1
20260904083053 20 88 0.0 3.2 0.00 0.00 0.00 32 1016.0
20260904081551 20 91 0.0 1.6 0.00 0.00 0.00 32 1015.9
20260904074555 21 92 0.0 1.6 0.00 0.00 0.00 31 1015.8
20260904073056 21 92 0.0 3.2 0.00 0.00 0.00 30 1016.1
20260904071552 21 90 0.0 3.2 0.00 0.00 0.00 30 1016.1
20260904064614 21 89 0.0 1.6 0.00 0.00 0.00 31 1016.4
20260904063052 22 44 0.0 3.2 0.00 0.00 0.00 30 1016.5
20260904061557 22 11 0.0 3.2 0.00 0.00 0.00 30 1016.7
20260904060057 22 331 1.6 4.8 0.00 0.00 0.00 30 1016.8
20260904054553 22 319 3.2 4.8 0.00 0.00 0.00 30 1016.8
20260904053051 22 311 1.6 4.8 0.00 0.00 0.00 30 1016.9
20260904051558 23 68 0.0 1.6 0.00 0.00 0.00 29 1016.6
20260904050115 23 91 0.0 4.8 0.00 0.00 0.00 28 1016.5
20260904044557 23 82 0.0 4.8 0.00 0.00 0.00 28 1016.3
20260904043054 23 94 0.0 9.7 0.00 0.00 0.00 27 1016.5
20260904041552 24 157 3.2 4.8 0.00 0.00 0.00 26 1016.5
20260904040056 24 103 1.6 6.4 0.00 0.00 0.00 26 1016.3
20260904034606 25 77 3.2 12.9 0.00 0.00 0.00 25 1016.3
20260904033054 25 116 6.4 11.3 0.00 0.00 0.00 25 1016.1
20260904031552 25 74 3.2 6.4 0.00 0.00 0.00 26 1016.1
20260904024606 25 80 6.4 19.3 0.00 0.00 0.00 25 1015.9
20260904023055 25 127 11.3 19.3 0.00 0.00 0.00 25 1015.6
20260904021552 25 79 9.7 17.7 0.00 0.00 0.00 24 1015.5
20260904020052 26 116 6.4 19.3 0.00 0.00 0.00 24 1015.2
20260904014611 26 111 11.3 22.5 0.00 0.00 0.00 24 1015.2
20260904013057 27 110 9.7 19.3 0.00 0.00 0.00 23 1015.1
20260904011556 27 121 8.0 16.1 0.00 0.00 0.00 22 1015.0
20260904010057 27 134 6.4 16.1 0.00 0.00 0.00 22 1015.1
20260904004559 28 139 6.4 11.3 0.00 0.00 0.00 21 1015.1
20260904003100 29 167 3.2 8.0 0.00 0.00 0.00 19 1015.2
20260904001554 29 221 1.6 11.3 0.00 0.00 0.00 19 1015.0
20260904000101 30 207 1.6 9.7 0.00 0.00 0.00 19 1014.9
20260903234558 30 215 3.2 12.9 0.00 0.00 0.00 18 1014.9
20260903233056 30 278 1.6 12.9 0.00 0.00 0.00 18 1015.1
20260903231604 30 210 3.2 11.3 0.00 0.00 0.00 18 1014.8
20260903230111 31 158 3.2 12.9 0.00 0.00 0.00 17 1014.9
20260903224555 30 219 3.2 12.9 0.00 0.00 0.00 17 1014.9
20260903223112 31 199 4.8 9.7 0.00 0.00 0.00 18 1014.9
20260903221556 31 202 4.8 11.3 0.00 0.00 0.00 17 1015.1
20260903220105 30 130 6.4 19.3 0.00 0.00 0.00 18 1015.2
20260903214555 31 302 1.6 9.7 0.00 0.00 0.00 18 1015.4
20260903213056 31 235 3.2 16.1 0.00 0.00 0.00 18 1015.4
20260903211608 31 119 3.2 9.7 0.00 0.00 0.00 18 1015.7
20260903210056 30 206 3.2 9.7 0.00 0.00 0.00 18 1015.9
20260903204602 31 214 3.2 14.5 0.00 0.00 0.00 18 1015.9
20260903203054 31 209 3.2 11.3 0.00 0.00 0.00 18 1016.1
20260903201557 31 300 4.8 12.9 0.00 0.00 0.00 18 1016.4
20260903200053 31 283 1.6 14.5 0.00 0.00 0.00 19 1016.4
20260903194559 31 221 3.2 9.7 0.00 0.00 0.00 18 1016.6
20260903193101 30 240 1.6 9.7 0.00 0.00 0.00 19 1016.6
20260903191601 30 196 1.6 9.7 0.00 0.00 0.00 19 1016.9
20260903190103 30 229 3.2 9.7 0.00 0.00 0.00 20 1017.2
20260903184603 30 331 3.2 11.3 0.00 0.00 0.00 20 1017.2
20260903183121 30 262 1.6 9.7 0.00 0.00 0.00 21 1017.4
20260903181610 30 322 1.6 11.3 0.00 0.00 0.00 21 1017.6
20260903180104 28 328 3.2 8.0 0.00 0.00 0.00 22 1017.8
20260903174602 28 311 4.8 9.7 0.00 0.00 0.00 22 1018.0
20260903173107 28 244 3.2 8.0 0.00 0.00 0.00 23 1018.0
20260903171607 28 255 0.0 9.7 0.00 0.00 0.00 23 1018.3
20260903170057 28 290 1.6 6.4 0.00 0.00 0.00 26 1018.4
20260903164557 27 249 1.6 6.4 0.00 0.00 0.00 29 1018.5
20260903163052 27 276 0.0 6.4 0.00 0.00 0.00 28 1018.3
20260903161606 26 0 1.6 6.4 0.00 0.00 0.00 28 1018.4
20260903160055 26 295 1.6 6.4 0.00 0.00 0.00 29 1018.3
20260903154602 26 326 0.0 6.4 0.00 0.00 0.00 31 1018.4
20260903153059 26 328 1.6 3.2 0.00 0.00 0.00 30 1018.4
20260903151555 25 329 0.0 3.2 0.00 0.00 0.00 31 1018.3
20260903150054 24 329 0.0 1.6 0.00 0.00 0.00 35 1018.5
20260903144600 23 0 0.0 3.2 0.00 0.00 0.00 34 1018.6
20260903143101 22 0 0.0 1.6 0.00 0.00 0.00 33 1018.6
20260903141555 21 330 0.0 3.2 0.00 0.00 0.00 36 1018.6
20260903140057 18 0 0.0 1.6 0.00 0.00 0.00 40 1018.5
20260903134609 18 330 0.0 4.8 0.00 0.00 0.00 41 1018.6
20260903133100 18 0 0.0 3.2 0.00 0.00 0.00 40 1018.3
20260903131556 -17 0.0 0.0 0.00 0.00 0.00 1018.2
20260903130054 -17 0.0 0.0 0.00 0.00 0.00 1018.1
20260903124604 -17 0.0 0.0 0.00 0.00 0.00 1017.9
20260903123058 -17 0.0 0.0 0.00 0.00 0.00 1017.6
20260903121559 -17 0.0 0.0 0.00 0.00 0.00 1017.6
20260903120052 -17 0.0 0.0 0.00 0.00 0.00 1017.7
20260903114556 -17 0.0 0.0 0.00 0.00 0.00 1017.4
20260903113053 -17 0.0 0.0 0.00 0.00 0.00 1017.3
20260903111554 -17 0.0 0.0 0.00 0.00 0.00 1017.3
20260903110059 16 333 0.0 3.2 0.00 0.00 0.00 48 1017.4
20260903104555 17 0 0.0 1.6 0.00 0.00 0.00 46 1017.4
20260903103048 17 329 0.0 1.6 0.00 0.00 0.00 47 1017.5
20260903101557 16 328 0.0 1.6 0.00 0.00 0.00 51 1017.5
20260903100056 17 0 0.0 3.2 0.00 0.00 0.00 46 1017.4
20260903094604 17 328 0.0 8.0 0.00 0.00 0.00 47 1017.5